Location: Rounton
(54.4000°N, 1.3500°W)
Time: 09:56:19
(UTC+01:00)

S-56A Canister/Altair - All Passes

Search period start: 08 September 2024 00:00
Search period end: 18 September 2024 00:00
Orbit: 636 x 2488 km, 38.9° (Epoch: 07 September)

Date Brightness Start Highest point End Pass type
(mag) Time Alt. Az. Time Alt. Az. Time Alt. Az.
08 Sep - 00:59:01 10° WSW 01:08:13 36° S 01:20:12 10° SE visible
08 Sep - 03:02:57 10° WSW 03:12:11 26° SSW 03:23:00 10° SSE visible
08 Sep - 05:13:03 10° WSW 05:15:22 11° SW 05:17:43 10° SW visible
08 Sep - 20:24:56 10° SSE 20:28:23 13° SE 20:32:22 10° ESE visible
08 Sep - 22:23:28 10° SW 22:30:33 29° SSE 22:40:08 10° ESE visible
09 Sep - 00:25:21 10° WSW 00:34:00 35° S 00:45:34 10° SE visible
09 Sep - 02:28:56 10° WSW 02:37:55 27° SSW 02:48:49 10° SSE visible
09 Sep - 04:36:49 10° WSW 04:41:15 12° SW 04:45:56 10° SSW visible
09 Sep - 19:54:12 10° SE 19:54:45 10° SE 19:55:20 10° SE daylight
09 Sep - 21:50:13 10° SSW 21:56:39 26° SSE 22:05:17 10° ESE visible
09 Sep - 23:51:45 10° WSW 23:59:52 34° S 00:10:53 10° ESE visible
10 Sep - 01:54:58 10° WSW 02:03:41 28° SSW 02:14:31 10° SSE visible
10 Sep - 04:01:40 10° WSW 04:07:09 14° SW 04:13:04 10° SSW visible
10 Sep - 21:17:03 10° SSW 21:22:48 23° SSE 21:30:24 10° ESE visible
10 Sep - 23:18:12 10° SW 23:25:46 33° S 23:36:10 10° ESE visible
11 Sep - 01:21:08 10° WSW 01:29:29 28° SSW 01:40:09 10° SSE visible
11 Sep - 03:26:57 10° WSW 03:33:01 15° SW 03:39:45 10° S visible
11 Sep - 20:44:00 10° SSW 20:49:02 20° SSE 20:55:30 10° ESE visible
11 Sep - 22:44:44 10° SW 22:51:46 31° S 23:01:26 10° ESE visible
12 Sep - 00:47:22 10° WSW 00:55:20 29° SSW 01:05:41 10° SE visible
12 Sep - 02:52:30 10° WSW 02:58:53 16° SW 03:06:08 10° S night (unlit)
12 Sep - 20:11:06 10° S 20:15:19 17° SSE 20:20:32 10° ESE visible
12 Sep - 22:11:20 10° SW 22:17:48 29° S 22:26:42 10° ESE visible
13 Sep - 00:13:42 10° WSW 00:21:12 29° SSW 00:31:10 10° SE visible
13 Sep - 02:18:17 10° WSW 02:24:44 18° SSW 02:32:20 10° S night (unlit)
13 Sep - 19:38:27 10° S 19:41:40 14° SE 19:45:26 10° ESE daylight
13 Sep - 21:37:59 10° SW 21:43:55 27° SSE 21:51:59 10° ESE visible
13 Sep - 23:40:05 10° WSW 23:47:08 29° S 23:56:37 10° SE visible
14 Sep - 01:44:11 10° WSW 01:50:38 18° SSW 01:58:21 10° S visible
14 Sep - 19:06:24 10° SSE 19:08:03 11° SE 19:09:49 10° SE daylight
14 Sep - 21:04:43 10° SW 21:10:05 25° SSE 21:17:17 10° ESE visible
14 Sep - 23:06:31 10° WSW 23:13:07 28° S 23:22:03 10° SE visible
15 Sep - 01:10:14 10° WSW 01:16:32 19° SSW 01:24:15 10° SSE visible
15 Sep - 20:31:30 10° SSW 20:36:19 22° SSE 20:42:35 10° ESE visible
15 Sep - 22:33:01 10° WSW 22:39:09 27° S 22:47:28 10° SE visible
16 Sep - 00:36:23 10° WSW 00:42:29 20° SSW 00:50:04 10° SSE visible
16 Sep - 19:58:22 10° SSW 20:02:35 19° SSE 20:07:54 10° ESE visible
16 Sep - 21:59:34 10° SW 22:05:15 26° S 22:12:53 10° SE visible
17 Sep - 00:02:38 10° WSW 00:08:27 20° SSW 00:15:48 10° SSE visible
17 Sep - 19:25:21 10° SSW 19:28:54 17° SSE 19:33:13 10° ESE daylight
17 Sep - 21:26:10 10° SW 21:31:23 24° S 21:38:20 10° SE visible
17 Sep - 23:28:57 10° WSW 23:34:29 20° SSW 23:41:29 10° SSE visible
